Location: Newark
(42.8481°N, 0.4872°E)
Time: 09:39:43
(UTC+00:00)

Vanguard 1 - Pass Details

Date: 05 November 2020
Orbit: 650 x 3833 km, 34.2° (Epoch: 26 November)

Event Time Altitude Azimuth Distance (km) Brightness Sun altitude
Rises 14:20:58 0° 272° (W) 7,499 15.1 20.8°
Reaches altitude 10° 14:25:46 10° 269° (W) 6,695 15.0 20.2°
Maximum altitude 14:48:33 62° 197° (SSW) 3,985 13.8 17.3°
Drops below altitude 10° 15:07:06 10° 122° (ESE) 5,603 13.8 14.7°
Sets 15:10:42 0° 119° (ESE) 6,276 14.0 14.2°
